Fitchburg, MA

1:18 PM EDT on July 19, 2019 (GMT -0400)
Fitchburg Municipal

Weather History for KFIT - May, 2019

Change the Weather History Date:

Wednesday, May 1, 2019

  Actual Average (WUND) Record (WUND)
Temperature  
Mean Temperature 47 °F -  
Max Temperature 57 °F - - (-1)
Min Temperature 37 °F - - (-1)
Degree Days  
Heating Degree Days 18    
Moisture  
Dew Point 33 °F    
Average Humidity 57    
Maximum Humidity 89    
Minimum Humidity 37    
Precipitation  
Precipitation 0.00 in - - ()
Sea Level Pressure  
Sea Level Pressure 30.38 in    
Wind  
Wind Speed 3 mph (South)    
Max Wind Speed 8 mph    
Max Gust Speed -    
Visibility 10 miles    
Events Rain    
Averages and records for this station are not official NWS values.
T = Trace of Precipitation, MM = Missing Value Source: NWS Daily Summary

Daily Weather History Graph

Daily Weather History Graph

Search for Another Location

Airport or City:

Astronomy

May. 01, 2019 Rise Set
Actual Time 5:42 AM EDT 7:46 PM EDT
Civil Twilight 5:11 AM EDT 8:17 PM EDT
Nautical Twilight 4:33 AM EDT 8:55 PM EDT
Astronomical Twilight 3:52 AM EDT 9:37 PM EDT
Moon 4:32 AM EDT (5/1) 4:26 PM EDT (5/1)
Length of Visible Light 15h 06m
Length of Day
14h 04m
Waning Crescent, 11% of the Moon is Illuminated
May 1
Waning Crescent
May 4
New
May 11
First Quarter
May 18
Full
May 26
Last Quarter

Hourly Weather History & Observations

Time (EDT) Temp. Windchill Dew Point Humidity Pressure Visibility Wind Dir Wind Speed Gust Speed Precip Events Conditions
12:52 AM 37.9 °F - 35.1 °F 89% 30.42 in 10.0 mi Calm Calm - N/A   Clear
1:52 AM 39.0 °F - 36.0 °F 89% 30.45 in 10.0 mi Calm Calm - N/A   Clear
2:52 AM 42.1 °F 39.2 °F 36.0 °F 79% 30.44 in 10.0 mi NW 4.6 mph - N/A   Mostly Cloudy
3:52 AM 43.0 °F - 35.1 °F 74% 30.44 in 10.0 mi Calm Calm - N/A   Overcast
4:52 AM 44.1 °F 42.5 °F 35.1 °F 71% 30.43 in 10.0 mi NW 3.5 mph - N/A   Overcast
5:52 AM 43.0 °F - 36.0 °F 76% 30.43 in 10.0 mi Calm Calm - N/A   Overcast
6:52 AM 45.0 °F 42.6 °F 35.1 °F 68% 30.47 in 10.0 mi NNW 4.6 mph - N/A   Overcast
7:52 AM 46.0 °F - 36.0 °F 68% 30.48 in 10.0 mi Calm Calm - N/A   Overcast
8:52 AM 48.0 °F - 36.0 °F 63% 30.48 in 10.0 mi NW 3.5 mph - 0.00 in   Overcast
9:52 AM 48.9 °F - 34.0 °F 56% 30.48 in 10.0 mi North 3.5 mph - 0.00 in Rain Light Rain
10:52 AM 48.9 °F - 30.9 °F 50% 30.48 in 10.0 mi NNE 3.5 mph - 0.00 in   Overcast
11:52 AM 51.1 °F - 30.0 °F 44% 30.47 in 10.0 mi North 3.5 mph - N/A   Overcast
12:52 PM 52.0 °F - 30.0 °F 43% 30.44 in 10.0 mi Variable 3.5 mph - N/A   Overcast
1:52 PM 53.1 °F - 28.0 °F 38% 30.43 in 10.0 mi Calm Calm - N/A   Overcast
2:52 PM 55.0 °F - 28.9 °F 37% 30.39 in 10.0 mi ESE 4.6 mph - N/A   Overcast
3:52 PM 55.9 °F - 30.9 °F 39% 30.35 in 10.0 mi Variable 4.6 mph - N/A   Overcast
4:52 PM 57.0 °F - 30.9 °F 37% 30.33 in 10.0 mi SSE 5.8 mph - N/A   Overcast
5:52 PM 55.9 °F - 30.0 °F 37% 30.33 in 10.0 mi South 6.9 mph - N/A   Overcast
6:52 PM 55.0 °F - 30.0 °F 38% 30.32 in 10.0 mi SSW 5.8 mph - N/A   Overcast
7:52 PM 54.0 °F - 30.9 °F 41% 30.31 in 10.0 mi South 5.8 mph - N/A   Overcast
8:52 PM 52.0 °F - 32.0 °F 47% 30.28 in 10.0 mi SSE 8.1 mph - N/A   Overcast
9:52 PM 51.1 °F - 33.1 °F 50% 30.26 in 10.0 mi SSE 6.9 mph - N/A   Overcast
10:10 PM 51.1 °F - 34.0 °F 52% 30.25 in 10.0 mi SSE 8.1 mph - N/A   Overcast
10:52 PM 50.0 °F - 37.9 °F 63% 30.22 in 10.0 mi South 5.8 mph - N/A   Overcast
11:52 PM 48.9 °F - 39.9 °F 71% 30.20 in 10.0 mi South 6.9 mph - N/A   Overcast